Station History

Weather Underground - logo

Station Historical Data
Daily Summary for September 26, 2017 Units:  English    Metric   Both
« Previous Day
Next Day »
Daily Weekly Monthly Yearly Custom
  High: Low: Average:
Temperature: 88.3 °F 53.2 °F 69.2 °F
Dew Point: 52.5 °F 41.3 °F 48.2 °F
Humidity: 84 % 21 % 53 %
Wind Speed: 3.5 mph 0.0 mph 0.8 mph
Wind Gust: 3.5 mph - -
Wind:- - SW
Pressure: 29.85 in 29.73 in -
Precipitation: 0.00 in    
Historical Graphs
 
 
Tabular Data for September 26, 2017
Time Temperature Dew Point Pressure Wind Wind Speed Wind Gust Humidity Rainfall Rate (Hourly)
00:03 58.4 °F 51.9 °F 29.82 in Calm     79 % 0.00 in
00:08 58.3 °F 52.5 °F 29.82 in Calm     81 % 0.00 in
00:13 58.1 °F 52.3 °F 29.82 in Calm     81 % 0.00 in
00:19 57.8 °F 51.7 °F 29.82 in Calm     80 % 0.00 in
00:24 57.6 °F 51.5 °F 29.82 in Calm     80 % 0.00 in
00:29 57.4 °F 51.6 °F 29.82 in Calm     81 % 0.00 in
00:34 57.2 °F 51.8 °F 29.82 in Calm     82 % 0.00 in
00:39 57.1 °F 51.7 °F 29.82 in Calm     82 % 0.00 in
00:44 57.3 °F 51.9 °F 29.82 in Calm     82 % 0.00 in
00:49 57.5 °F 52.0 °F 29.82 in Calm     82 % 0.00 in
00:54 57.6 °F 51.8 °F 29.82 in Calm     81 % 0.00 in
00:59 57.6 °F 52.1 °F 29.83 in Calm     82 % 0.00 in
01:04 57.5 °F 52.0 °F 29.82 in Calm     82 % 0.00 in
01:09 57.4 °F 51.9 °F 29.82 in Calm     82 % 0.00 in
01:14 57.4 °F 52.3 °F 29.82 in Calm     83 % 0.00 in
01:19 57.3 °F 52.2 °F 29.82 in Calm     83 % 0.00 in
01:24 57.0 °F 51.9 °F 29.82 in Calm     83 % 0.00 in
01:29 56.7 °F 51.6 °F 29.83 in Calm     83 % 0.00 in
01:34 56.2 °F 50.8 °F 29.83 in Calm     82 % 0.00 in
01:39 56.1 °F 50.3 °F 29.83 in Calm   0.1 mph 81 % 0.00 in
01:44 56.2 °F 50.1 °F 29.83 in Calm     80 % 0.00 in
01:49 56.3 °F 50.2 °F 29.83 in Calm     80 % 0.00 in
01:59 56.2 °F 50.1 °F 29.83 in Calm     80 % 0.00 in
02:04 56.1 °F 50.0 °F 29.83 in Calm     80 % 0.00 in
02:09 55.8 °F 50.1 °F 29.83 in Calm     81 % 0.00 in
02:14 55.9 °F 50.2 °F 29.83 in Calm     81 % 0.00 in
02:19 55.9 °F 50.5 °F 29.83 in Calm     82 % 0.00 in
02:24 55.7 °F 50.6 °F 29.83 in Calm     83 % 0.00 in
02:29 55.5 °F 50.1 °F 29.83 in Calm     82 % 0.00 in
02:35 55.5 °F 50.1 °F 29.83 in Calm     82 % 0.00 in
02:40 55.4 °F 50.3 °F 29.83 in Calm     83 % 0.00 in
02:45 55.2 °F 50.4 °F 29.83 in Calm     84 % 0.00 in
02:50 55.0 °F 50.3 °F 29.83 in Calm     84 % 0.00 in
02:55 54.9 °F 50.2 °F 29.83 in Calm     84 % 0.00 in
03:00 54.8 °F 50.1 °F 29.83 in Calm     84 % 0.00 in
03:05 54.6 °F 49.5 °F 29.83 in Calm     83 % 0.00 in
03:10 54.5 °F 49.4 °F 29.83 in Calm     83 % 0.00 in
03:15 54.3 °F 49.2 °F 29.83 in Calm     83 % 0.00 in
03:20 54.4 °F 49.3 °F 29.83 in Calm     83 % 0.00 in
03:25 54.6 °F 48.9 °F 29.83 in Calm     81 % 0.00 in
03:30 54.7 °F 48.3 °F 29.83 in Calm     79 % 0.00 in
03:35 54.7 °F 48.3 °F 29.83 in Calm     79 % 0.00 in
03:40 54.8 °F 48.4 °F 29.82 in Calm     79 % 0.00 in
03:45 55.0 °F 48.3 °F 29.83 in Calm     78 % 0.00 in
03:50 55.0 °F 48.6 °F 29.82 in Calm     79 % 0.00 in
03:55 54.7 °F 48.3 °F 29.82 in Calm     79 % 0.00 in
04:00 54.4 °F 48.7 °F 29.82 in Calm     81 % 0.00 in
04:05 54.1 °F 48.4 °F 29.82 in Calm     81 % 0.00 in
04:10 54.0 °F 48.6 °F 29.82 in Calm     82 % 0.00 in
04:15 53.9 °F 48.9 °F 29.82 in Calm     83 % 0.00 in
04:20 53.9 °F 48.5 °F 29.82 in Calm     82 % 0.00 in
04:25 54.2 °F 48.2 °F 29.82 in Calm     80 % 0.00 in
04:30 54.5 °F 48.1 °F 29.81 in Calm     79 % 0.00 in
04:35 54.7 °F 48.0 °F 29.82 in Calm     78 % 0.00 in
04:40 54.6 °F 47.9 °F 29.81 in Calm     78 % 0.00 in
04:41 54.6 °F 47.9 °F 29.81 in Calm     78 % 0.00 in
04:46 54.3 °F 47.9 °F 29.81 in Calm     79 % 0.00 in
04:51 53.9 °F 47.5 °F 29.81 in Calm     79 % 0.00 in
04:56 53.7 °F 47.7 °F 29.81 in Calm     80 % 0.00 in
05:01 53.5 °F 47.8 °F 29.81 in Calm     81 % 0.00 in
05:06 53.6 °F 47.6 °F 29.81 in Calm     80 % 0.00 in
05:11 53.7 °F 47.7 °F 29.81 in Calm     80 % 0.00 in
05:16 54.2 °F 48.2 °F 29.81 in Calm     80 % 0.00 in
05:21 54.6 °F 48.6 °F 29.81 in Calm     80 % 0.00 in
05:26 54.6 °F 48.2 °F 29.81 in Calm     79 % 0.00 in
05:31 54.5 °F 48.1 °F 29.81 in Calm     79 % 0.00 in
05:36 54.2 °F 47.8 °F 29.81 in Calm     79 % 0.00 in
05:41 54.0 °F 47.6 °F 29.81 in Calm     79 % 0.00 in
05:51 54.2 °F 47.5 °F 29.81 in Calm     78 % 0.00 in
05:56 54.5 °F 48.1 °F 29.81 in Calm     79 % 0.00 in
06:01 54.5 °F 47.4 °F 29.81 in Calm     77 % 0.00 in
06:06 54.8 °F 48.1 °F 29.82 in Calm     78 % 0.00 in
06:11 54.7 °F 48.3 °F 29.82 in Calm     79 % 0.00 in
06:16 54.3 °F 48.3 °F 29.82 in Calm     80 % 0.00 in
06:21 53.9 °F 48.2 °F 29.82 in NNE 1.2 mph   81 % 0.00 in
06:26 53.6 °F 48.2 °F 29.82 in Calm     82 % 0.00 in
06:31 53.3 °F 48.3 °F 29.82 in Calm     83 % 0.00 in
06:36 53.2 °F 48.5 °F 29.83 in Calm     84 % 0.00 in
06:41 53.2 °F 48.5 °F 29.83 in Calm     84 % 0.00 in
06:46 53.2 °F 48.5 °F 29.83 in Calm     84 % 0.00 in
06:51 53.3 °F 47.9 °F 29.83 in Calm     82 % 0.00 in
06:56 53.6 °F 47.9 °F 29.83 in Calm     81 % 0.00 in
07:01 53.6 °F 48.2 °F 29.83 in Calm     82 % 0.00 in
07:06 53.4 °F 48.0 °F 29.83 in Calm     82 % 0.00 in
07:07 53.4 °F 48.0 °F 29.83 in Calm     82 % 0.00 in
07:12 53.3 °F 47.3 °F 29.84 in Calm     80 % 0.00 in
07:17 53.5 °F 47.1 °F 29.84 in Calm     79 % 0.00 in
07:22 54.1 °F 47.4 °F 29.84 in Calm     78 % 0.00 in
07:23 54.3 °F 47.6 °F 29.84 in Calm     78 % 0.00 in
07:28 54.5 °F 48.1 °F 29.84 in Calm     79 % 0.00 in
07:33 54.6 °F 49.2 °F 29.84 in Calm     82 % 0.00 in
07:38 54.6 °F 49.2 °F 29.84 in Calm     82 % 0.00 in
07:43 54.6 °F 49.5 °F 29.84 in Calm     83 % 0.00 in
07:48 55.0 °F 49.9 °F 29.84 in Calm     83 % 0.00 in
07:53 55.4 °F 50.6 °F 29.85 in NNE 2.3 mph 2.3 mph 84 % 0.00 in
07:58 55.8 °F 50.1 °F 29.84 in NNE 1.2 mph 1.2 mph 81 % 0.00 in
08:03 56.7 °F 51.3 °F 29.84 in Calm     82 % 0.00 in
08:08 58.2 °F 51.7 °F 29.84 in Calm     79 % 0.00 in
08:13 59.6 °F 52.4 °F 29.85 in Calm     77 % 0.00 in
08:18 60.7 °F 52.0 °F 29.85 in Calm     73 % 0.00 in
08:23 61.8 °F 51.1 °F 29.85 in Calm     68 % 0.00 in
08:33 63.5 °F 50.7 °F 29.85 in Calm     63 % 0.00 in
08:34 63.7 °F 50.9 °F 29.85 in Calm     63 % 0.00 in
08:39 64.5 °F 50.7 °F 29.85 in Calm     61 % 0.00 in
08:44 65.4 °F 51.1 °F 29.85 in South 1.0 mph 1.0 mph 60 % 0.00 in
08:49 66.4 °F 50.2 °F 29.85 in East 1.2 mph 1.2 mph 56 % 0.00 in
08:54 66.8 °F 50.1 °F 29.85 in East 1.2 mph 1.2 mph 55 % 0.00 in
08:59 67.5 °F 49.3 °F 29.85 in SE 1.2 mph 1.2 mph 52 % 0.00 in
09:04 68.2 °F 49.9 °F 29.85 in ESE 1.2 mph 1.2 mph 52 % 0.00 in
09:09 68.8 °F 48.3 °F 29.85 in SE 1.2 mph 1.2 mph 48 % 0.00 in
09:14 69.7 °F 50.2 °F 29.85 in Calm     50 % 0.00 in
09:19 70.5 °F 48.7 °F 29.85 in East 2.3 mph 2.3 mph 46 % 0.00 in
09:24 70.9 °F 48.5 °F 29.85 in SSE 2.0 mph 2.0 mph 45 % 0.00 in
09:29 71.3 °F 47.6 °F 29.85 in SE 2.3 mph 2.3 mph 43 % 0.00 in
09:34 71.7 °F 48.0 °F 29.85 in SE 1.2 mph 1.2 mph 43 % 0.00 in
09:35 71.8 °F 48.7 °F 29.85 in SSE 1.2 mph 1.2 mph 44 % 0.00 in
09:40 72.5 °F 47.5 °F 29.85 in SSW 1.2 mph 1.2 mph 41 % 0.00 in
09:50 73.9 °F 48.7 °F 29.85 in Calm     41 % 0.00 in
09:55 74.4 °F 47.8 °F 29.85 in SSW 3.5 mph 3.5 mph 39 % 0.00 in
10:00 74.2 °F 48.3 °F 29.85 in East 3.5 mph 3.5 mph 40 % 0.00 in
10:05 74.6 °F 50.0 °F 29.85 in Calm     42 % 0.00 in
10:10 75.2 °F 50.5 °F 29.84 in SE 2.0 mph 2.0 mph 42 % 0.00 in
10:15 75.6 °F 46.8 °F 29.84 in NW 1.2 mph 1.2 mph 36 % 0.00 in
10:20 75.8 °F 48.4 °F 29.84 in ENE 1.2 mph 1.2 mph 38 % 0.00 in
10:25 76.3 °F 50.2 °F 29.84 in Calm     40 % 0.00 in
10:30 76.8 °F 49.3 °F 29.84 in East 1.2 mph 1.2 mph 38 % 0.00 in
10:35 77.6 °F 46.2 °F 29.84 in NNW 1.2 mph 1.2 mph 33 % 0.00 in
10:40 77.9 °F 47.3 °F 29.84 in NNW 2.3 mph 2.3 mph 34 % 0.00 in
10:45 78.4 °F 46.1 °F 29.84 in SE 2.3 mph 2.3 mph 32 % 0.00 in
10:50 78.7 °F 47.2 °F 29.84 in NW 2.3 mph 2.3 mph 33 % 0.00 in
10:55 79.0 °F 46.6 °F 29.84 in NNE 1.2 mph 1.2 mph 32 % 0.00 in
11:00 78.8 °F 45.6 °F 29.84 in WNW 3.0 mph 3.0 mph 31 % 0.00 in
11:05 79.1 °F 47.5 °F 29.83 in WNW 2.0 mph 2.0 mph 33 % 0.00 in
11:10 79.4 °F 47.0 °F 29.83 in ESE 3.5 mph 3.5 mph 32 % 0.00 in
11:15 79.8 °F 46.5 °F 29.83 in ESE 2.3 mph 2.3 mph 31 % 0.00 in
11:20 80.1 °F 46.7 °F 29.83 in ENE 1.2 mph 1.2 mph 31 % 0.00 in
11:25 80.4 °F 46.1 °F 29.83 in North 1.2 mph 1.2 mph 30 % 0.00 in
11:30 80.5 °F 45.3 °F 29.82 in WNW 2.3 mph 2.3 mph 29 % 0.00 in
11:31 80.5 °F 46.2 °F 29.82 in Calm   0.1 mph 30 % 0.00 in
11:36 80.9 °F 48.3 °F 29.82 in SSE 1.2 mph 1.2 mph 32 % 0.00 in
11:41 81.1 °F 47.6 °F 29.82 in NNW 1.2 mph   31 % 0.00 in
11:47 81.8 °F 49.9 °F 29.82 in Calm   0.1 mph 33 % 0.00 in
11:52 81.9 °F 47.4 °F 29.82 in North 1.2 mph 1.2 mph 30 % 0.00 in
12:02 81.5 °F 47.1 °F 29.81 in WNW 2.3 mph 2.3 mph 30 % 0.00 in
12:07 81.5 °F 45.2 °F 29.81 in Calm   0.8 mph 28 % 0.00 in
12:11 81.6 °F 44.4 °F 29.81 in NW 1.2 mph 1.2 mph 27 % 0.00 in
12:15 82.0 °F 44.7 °F 29.81 in NE 1.2 mph 1.2 mph 27 % 0.00 in
12:21 82.7 °F 47.2 °F 29.81 in West 1.2 mph 1.2 mph 29 % 0.00 in
12:26 83.5 °F 50.5 °F 29.81 in ENE 2.3 mph   32 % 0.00 in
12:31 83.9 °F 49.1 °F 29.80 in NW 1.2 mph   30 % 0.00 in
12:36 84.3 °F 48.6 °F 29.80 in WNW 3.5 mph 3.5 mph 29 % 0.00 in
12:41 83.8 °F 48.1 °F 29.80 in NW 2.3 mph 2.3 mph 29 % 0.00 in
12:46 83.7 °F 46.2 °F 29.80 in NNW 2.0 mph 2.0 mph 27 % 0.00 in
12:51 84.1 °F 49.3 °F 29.80 in Calm     30 % 0.00 in
12:56 84.5 °F 46.8 °F 29.79 in Calm     27 % 0.00 in
13:01 85.0 °F 47.3 °F 29.79 in WNW 1.2 mph 1.2 mph 27 % 0.00 in
13:06 84.5 °F 46.8 °F 29.79 in North 1.2 mph 1.2 mph 27 % 0.00 in
13:11 84.7 °F 47.0 °F 29.79 in Calm     27 % 0.00 in
13:16 84.9 °F 47.2 °F 29.78 in NW 2.3 mph 2.3 mph 27 % 0.00 in
13:21 85.2 °F 46.4 °F 29.78 in WNW 3.5 mph 3.5 mph 26 % 0.00 in
13:26 85.3 °F 47.5 °F 29.78 in Calm   0.1 mph 27 % 0.00 in
13:31 86.1 °F 49.2 °F 29.77 in ESE 1.2 mph 1.2 mph 28 % 0.00 in
13:36 86.9 °F 48.9 °F 29.78 in WNW 1.2 mph 1.2 mph 27 % 0.00 in
13:41 86.0 °F 48.1 °F 29.77 in WNW 2.3 mph 2.3 mph 27 % 0.00 in
13:46 85.7 °F 46.9 °F 29.77 in WNW 2.3 mph 2.3 mph 26 % 0.00 in
13:51 85.7 °F 48.8 °F 29.77 in NW 3.5 mph 3.5 mph 28 % 0.00 in
13:56 85.7 °F 44.7 °F 29.76 in NNW 2.3 mph 2.3 mph 24 % 0.00 in
14:01 86.3 °F 48.4 °F 29.76 in SSW 1.2 mph 1.2 mph 27 % 0.00 in
14:06 86.4 °F 43.1 °F 29.76 in SW 2.3 mph 2.3 mph 22 % 0.00 in
14:11 86.8 °F 43.4 °F 29.76 in South 2.3 mph 2.3 mph 22 % 0.00 in
14:16 87.1 °F 45.9 °F 29.76 in SSE 2.3 mph 2.3 mph 24 % 0.00 in
14:21 87.7 °F 44.1 °F 29.76 in SSE 2.3 mph 2.3 mph 22 % 0.00 in
14:26 87.9 °F 44.3 °F 29.76 in North 2.3 mph 2.3 mph 22 % 0.00 in
14:31 87.2 °F 43.7 °F 29.76 in NW 3.5 mph 3.5 mph 22 % 0.00 in
14:36 87.0 °F 44.7 °F 29.75 in NW 2.3 mph 2.3 mph 23 % 0.00 in
14:41 86.9 °F 44.6 °F 29.75 in North 3.5 mph 3.5 mph 23 % 0.00 in
14:46 87.5 °F 44.0 °F 29.75 in East 2.3 mph 2.3 mph 22 % 0.00 in
14:51 88.0 °F 45.6 °F 29.75 in North 2.3 mph 2.3 mph 23 % 0.00 in
14:56 87.7 °F 44.1 °F 29.75 in WNW 2.3 mph 2.3 mph 22 % 0.00 in
15:01 87.9 °F 45.5 °F 29.75 in ENE 2.3 mph 2.3 mph 23 % 0.00 in
15:06 88.3 °F 44.6 °F 29.75 in SW 2.3 mph 2.3 mph 22 % 0.00 in
15:11 88.1 °F 44.5 °F 29.75 in NW 1.2 mph 1.3 mph 22 % 0.00 in
15:16 87.5 °F 42.8 °F 29.75 in WSW 3.5 mph 3.5 mph 21 % 0.00 in
15:21 87.2 °F 44.9 °F 29.75 in West 1.2 mph   23 % 0.00 in
15:26 87.4 °F 45.1 °F 29.75 in WNW 3.5 mph 3.5 mph 23 % 0.00 in
15:31 87.5 °F 45.1 °F 29.74 in NW 2.3 mph 2.3 mph 23 % 0.00 in
15:36 87.5 °F 46.3 °F 29.74 in NNW 2.3 mph 2.3 mph 24 % 0.00 in
15:41 87.4 °F 43.9 °F 29.74 in West 3.5 mph 3.5 mph 22 % 0.00 in
15:46 87.1 °F 42.4 °F 29.74 in NW 2.3 mph 2.3 mph 21 % 0.00 in
15:51 87.0 °F 43.6 °F 29.74 in WNW 3.5 mph 3.5 mph 22 % 0.00 in
15:56 87.2 °F 46.0 °F 29.74 in WNW 3.5 mph 3.5 mph 24 % 0.00 in
16:01 87.1 °F 44.8 °F 29.74 in NW 2.3 mph 2.3 mph 23 % 0.00 in
16:06 87.0 °F 44.7 °F 29.74 in NW 2.3 mph 2.3 mph 23 % 0.00 in
16:11 86.6 °F 43.2 °F 29.74 in NW 3.5 mph 3.5 mph 22 % 0.00 in
16:16 86.6 °F 44.4 °F 29.74 in NW 2.3 mph 2.3 mph 23 % 0.00 in
16:21 86.7 °F 43.3 °F 29.74 in NW 2.3 mph   22 % 0.00 in
16:26 86.5 °F 43.1 °F 29.74 in NW 3.5 mph 3.5 mph 22 % 0.00 in
16:31 86.4 °F 43.1 °F 29.74 in NW 2.3 mph   22 % 0.00 in
16:36 86.3 °F 43.0 °F 29.74 in NW 2.3 mph 2.3 mph 22 % 0.00 in
16:41 86.1 °F 42.8 °F 29.74 in NW 3.5 mph 3.5 mph 22 % 0.00 in
16:47 86.1 °F 42.8 °F 29.74 in NW 2.3 mph 2.3 mph 22 % 0.00 in
16:52 86.1 °F 42.8 °F 29.74 in NNW 2.3 mph 2.3 mph 22 % 0.00 in
16:57 86.0 °F 43.9 °F 29.74 in WNW 3.5 mph 3.5 mph 23 % 0.00 in
17:02 85.9 °F 42.6 °F 29.74 in NW 1.2 mph 1.2 mph 22 % 0.00 in
17:07 85.9 °F 42.6 °F 29.74 in NW 3.5 mph 3.5 mph 22 % 0.00 in
17:12 85.8 °F 41.3 °F 29.74 in NW 1.2 mph 1.2 mph 21 % 0.00 in
17:17 85.6 °F 42.4 °F 29.74 in WNW 1.2 mph 1.2 mph 22 % 0.00 in
17:22 85.4 °F 43.4 °F 29.74 in NW 1.2 mph 1.2 mph 23 % 0.00 in
17:27 85.2 °F 45.4 °F 29.74 in Calm     25 % 0.00 in
17:32 85.0 °F 43.0 °F 29.74 in NW 2.3 mph 2.3 mph 23 % 0.00 in
17:37 84.8 °F 42.9 °F 29.74 in NNW 1.2 mph 1.2 mph 23 % 0.00 in
17:42 84.6 °F 43.8 °F 29.74 in NNW 3.5 mph 3.5 mph 24 % 0.00 in
17:47 84.3 °F 44.6 °F 29.73 in NW 1.2 mph 1.2 mph 25 % 0.00 in
17:52 84.1 °F 44.5 °F 29.74 in NW 1.2 mph 1.2 mph 25 % 0.00 in
17:57 83.9 °F 44.3 °F 29.74 in NW 2.3 mph 2.3 mph 25 % 0.00 in
18:02 83.8 °F 44.2 °F 29.74 in WNW 1.2 mph 1.2 mph 25 % 0.00 in
18:07 83.7 °F 43.1 °F 29.74 in NW 2.3 mph 2.3 mph 24 % 0.00 in
18:12 83.4 °F 44.9 °F 29.74 in Calm     26 % 0.00 in
18:17 82.8 °F 44.4 °F 29.74 in Calm     26 % 0.00 in
18:22 82.3 °F 45.0 °F 29.74 in Calm     27 % 0.00 in
18:27 81.7 °F 45.4 °F 29.74 in Calm     28 % 0.00 in
18:32 81.0 °F 46.6 °F 29.74 in Calm     30 % 0.00 in
18:37 80.3 °F 47.7 °F 29.74 in Calm     32 % 0.00 in
18:42 79.5 °F 46.2 °F 29.74 in Calm     31 % 0.00 in
18:47 78.8 °F 48.1 °F 29.74 in Calm     34 % 0.00 in
18:52 78.0 °F 49.6 °F 29.74 in Calm     37 % 0.00 in
18:57 76.8 °F 47.8 °F 29.75 in Calm     36 % 0.00 in
19:02 76.5 °F 48.3 °F 29.75 in Calm     37 % 0.00 in
19:07 76.2 °F 46.5 °F 29.75 in Calm     35 % 0.00 in
19:12 75.9 °F 47.8 °F 29.75 in Calm     37 % 0.00 in
19:18 75.9 °F 47.8 °F 29.75 in Calm     37 % 0.00 in
19:23 75.5 °F 50.1 °F 29.75 in Calm     41 % 0.00 in
19:26 74.8 °F 49.5 °F 29.75 in Calm     41 % 0.00 in
19:31 74.1 °F 50.2 °F 29.75 in Calm     43 % 0.00 in
19:36 73.4 °F 50.2 °F 29.75 in Calm     44 % 0.00 in
19:41 72.8 °F 51.4 °F 29.75 in Calm     47 % 0.00 in
19:46 72.1 °F 51.3 °F 29.75 in Calm     48 % 0.00 in
19:51 71.3 °F 51.1 °F 29.75 in Calm     49 % 0.00 in
19:56 70.7 °F 50.6 °F 29.75 in Calm     49 % 0.00 in
20:01 70.2 °F 50.1 °F 29.75 in Calm     49 % 0.00 in
20:06 69.7 °F 50.8 °F 29.76 in Calm     51 % 0.00 in
20:11 69.6 °F 49.6 °F 29.76 in Calm     49 % 0.00 in
20:16 69.5 °F 50.0 °F 29.76 in Calm     50 % 0.00 in
20:21 69.2 °F 49.8 °F 29.76 in Calm     50 % 0.00 in
20:24 69.1 °F 49.1 °F 29.76 in Calm     49 % 0.00 in
20:29 68.8 °F 49.4 °F 29.76 in Calm     50 % 0.00 in
20:34 68.5 °F 51.2 °F 29.76 in Calm     54 % 0.00 in
20:39 68.5 °F 51.2 °F 29.76 in Calm     54 % 0.00 in
20:44 68.3 °F 50.5 °F 29.76 in Calm     53 % 0.00 in
20:49 68.0 °F 50.7 °F 29.76 in Calm     54 % 0.00 in
20:54 68.0 °F 49.7 °F 29.76 in Calm     52 % 0.00 in
20:55 68.1 °F 49.8 °F 29.76 in Calm     52 % 0.00 in
21:00 68.8 °F 47.7 °F 29.76 in Calm     47 % 0.00 in
21:05 69.7 °F 49.1 °F 29.76 in Calm     48 % 0.00 in
21:10 69.5 °F 49.5 °F 29.76 in Calm     49 % 0.00 in
21:15 68.6 °F 50.8 °F 29.76 in Calm     53 % 0.00 in
21:20 67.5 °F 49.3 °F 29.77 in Calm     52 % 0.00 in
21:25 66.9 °F 49.2 °F 29.77 in Calm     53 % 0.00 in
21:30 66.5 °F 49.8 °F 29.77 in Calm     55 % 0.00 in
21:35 66.2 °F 49.6 °F 29.77 in Calm     55 % 0.00 in
21:40 66.1 °F 49.5 °F 29.77 in Calm     55 % 0.00 in
21:45 65.9 °F 50.2 °F 29.77 in Calm     57 % 0.00 in
21:50 65.6 °F 50.0 °F 29.77 in Calm     57 % 0.00 in
21:55 65.2 °F 50.0 °F 29.77 in Calm     58 % 0.00 in
22:00 64.4 °F 50.2 °F 29.77 in Calm     60 % 0.00 in
22:05 64.0 °F 49.8 °F 29.78 in Calm     60 % 0.00 in
22:10 64.1 °F 49.9 °F 29.78 in Calm     60 % 0.00 in
22:15 64.2 °F 50.0 °F 29.78 in Calm     60 % 0.00 in
22:20 63.7 °F 50.0 °F 29.78 in Calm   0.1 mph 61 % 0.00 in
22:25 63.2 °F 50.0 °F 29.78 in Calm     62 % 0.00 in
22:30 63.0 °F 51.0 °F 29.78 in Calm     65 % 0.00 in
22:35 62.3 °F 50.4 °F 29.78 in Calm     65 % 0.00 in
22:40 61.8 °F 50.3 °F 29.79 in Calm     66 % 0.00 in
22:45 61.5 °F 50.4 °F 29.79 in Calm     67 % 0.00 in
22:50 61.4 °F 50.7 °F 29.79 in Calm     68 % 0.00 in
22:55 61.3 °F 50.2 °F 29.79 in Calm     67 % 0.00 in
22:56 61.3 °F 50.2 °F 29.79 in Calm     67 % 0.00 in
23:01 61.2 °F 50.9 °F 29.79 in Calm     69 % 0.00 in
23:06 61.2 °F 50.2 °F 29.79 in Calm     67 % 0.00 in
23:11 61.7 °F 50.2 °F 29.79 in Calm     66 % 0.00 in
23:16 61.9 °F 50.0 °F 29.79 in Calm     65 % 0.00 in
23:21 61.9 °F 50.4 °F 29.79 in Calm     66 % 0.00 in
23:26 61.8 °F 49.9 °F 29.79 in Calm     65 % 0.00 in
23:31 62.0 °F 50.1 °F 29.79 in Calm     65 % 0.00 in
23:36 62.0 °F 50.5 °F 29.79 in Calm     66 % 0.00 in
23:41 62.0 °F 49.3 °F 29.79 in Calm     63 % 0.00 in
23:46 62.2 °F 49.4 °F 29.79 in Calm     63 % 0.00 in
23:51 62.1 °F 49.4 °F 29.79 in Calm     63 % 0.00 in
23:56 62.3 °F 49.1 °F 29.80 in Calm     62 % 0.00 in
Park Place, Exeter, Tulare County, California, USA
Compliments of Weather Underground - 2.75 mb